Location: Brookview Estates
(36.0476°N, 86.6931°W)
Time: 08:46:39
(UTC+00:00)

ADEOS - Pass Details

Date: 30 March 2020
Orbit: 792 x 795 km, 98.9° (Epoch: 01 June)

Event Time Altitude Azimuth Distance (km) Brightness Sun altitude
Rises 09:21:34 0° 20° (NNE) 3,302 7.5 -26.7°
Reaches altitude 10° 09:24:00 10° 26° (NNE) 2,368 6.7 -26.2°
Maximum altitude 09:29:02 47° 100° (E) 1,040 4.4 -25.3°
Enters shadow 09:32:44 18° 168° (SSE) 1,881 5.4 -24.6°
